Regional Weather Roundup
Issued by NWS Sioux Falls, SD

Home | Current Version | Previous Version | Text Only | Print | Product List | Glossary Off
Versions: 1 2 3 4 5 6 7 8 9 10 11 12 13 14 15 16 17 18 19 20 21 22 23 24 25 26 27 28 29 30 31 32 33 34 35 36 37 38 39 40 41 42 43 44 45 46 47 48 49 50

000
ASUS43 KFSD 221202
RWRFSD

WEATHER ROUNDUP FOR SE SOUTH DAKOTA/SW MINNESOTA/NW IOWA
NATIONAL WEATHER SERVICE SIOUX FALLS SD
700 AM CDT TUE AUG 22 2017

NOTE: "FAIR" INDICATES FEW OR NO CLOUDS BELOW 12,000 FEET WITH NO
SIGNIFICANT WEATHER AND OR OBSTRUCTIONS TO VISIBILITY.


SDZ038>040-050-052>070-221300-
SOUTHEAST SOUTH DAKOTA

CITY           SKY/WX    TMP DP  RH WIND       PRES   REMARKS
BROOKINGS      CLEAR     50  49  96 CALM      30.13R
CHAMBERLAIN    CLEAR     52  50  92 W7        30.19R
6HR MIN TEMP:  49; 6HR MAX TEMP:  64;

HURON          CLEAR     47  45  93 W6        30.16R
6HR MIN TEMP:  46; 6HR MAX TEMP:  56;

MADISON        FAIR      48  48 100 NW8       30.13R
MITCHELL       CLEAR     51  48  89 W7        30.16R
6HR MIN TEMP:  50; 6HR MAX TEMP:  60;

SIOUX FALLS    CLEAR     54  52  93 NW5       30.12R
6HR MIN TEMP:  54; 6HR MAX TEMP:  64;

WINNER         FAIR      52  49  89 SW6       30.21R
YANKTON        CLEAR     53  51  93 NW9       30.15R
$$

MNZ071-072-080-081-089-090-097-098-221300-
SOUTHWEST MINNESOTA

CITY           SKY/WX    TMP DP  RH WIND       PRES   REMARKS
FAIRMONT       CLEAR     57  54  89 NW12      30.05R
JACKSON        CLEAR     54  52  94 CALM      30.08R
LUVERNE        CLEAR     50  46  87 NW3       30.12R
MARSHALL       CLEAR     51  49  92 NW9       30.09R
6HR MIN TEMP:  50; 6HR MAX TEMP:  63; 6HR PCP:  0.05;

MONTEVIDEO     CLEAR     52  52 100 NW6       30.08R
PIPESTONE      CLEAR     54  50  87 NW7       30.12R
REDWOOD FALLS  CLEAR     54  51  90 NW9       30.06R
TRACY          CLEAR     54  52  92 NW7       30.09R
WINDOM         CLEAR     54  52  94 NW6       30.07R
WORTHINGTON    CLEAR     53  50  89 NW7       30.10R
$$

IAZ001>003-012>014-020>022-031-032-NEZ013-014-SDZ071-221300-
NORTHWEST IOWA

CITY           SKY/WX    TMP DP  RH WIND       PRES   REMARKS
CHEROKEE       CLEAR     56  56  97 N7        30.10R
DENISON        CLEAR     61  59  94 CALM      30.11R
ESTHERVILLE    CLEAR     54  54 100 NW9       30.05R
ORANGE CITY    CLEAR     55  55 100 NW7       30.11R
SHELDON        CLEAR     52  52 100 NW6       30.09R
SIOUX CITY     CLEAR     57  56  96 NW6       30.11R
6HR MIN TEMP:  57; 6HR MAX TEMP:  63;

SPENCER        CLEAR     54  51  90 NW6       30.08R
6HR MIN TEMP:  54; 6HR MAX TEMP:  61;

STORM LAKE     CLEAR     55  52  88 NW10      30.09R
$$

ABBREVIATIONS USED IN REMARKS
   TC - TEMPERATURE IN CELSIUS
  WCI - WIND CHILL INDEX
   HX - HEAT INDEX
  VSB - VISIBILITY




USA.gov is the U.S. government's official web portal to all federal, state and local government web resources and services.